Owls Head, Maine

5:28 AM EDT on August 30, 2016 (GMT -0400)
GoMOOS | | Change Station

Elev 0 ft 44.06 °N, 69.00 °W | Updated 227 days ago

Partly Cloudy
Partly Cloudy
65 °F
Feels Like 65 °F
N
6
Wind Variable Wind from WNW
Gusts mph

Today
High -- | Low -- °F
--% Chance of Precip.
Yesterday
High -- | Low -- °F
Precip. -- in
Pressure 30.11 in
Visibility 10.0 miles
Clouds Clear
Dew Point 57 °F
Humidity 75%
Rainfall in
Snow Depth Not available.
5:57 AM 7:14 PM
Waning Crescent, 4% visible
METAR KRKD 300856Z AUTO 28004KT 10SM CLR 14/12 A3011 RMK AO2 SLP196 T01390122 53003
Pressure 30.11 in
Visibility 10.0 miles
Clouds Clear
Dew Point 57 °F
Humidity 75%
Rainfall in
Snow Depth Not available.
5:57 AM 7:14 PM
Waning Crescent, 4% visible
METAR KRKD 300856Z AUTO 28004KT 10SM CLR 14/12 A3011 RMK AO2 SLP196 T01390122 53003

10-Day Weather Forecast

Almanac

Astronomy

Aug. 30, 2016 Rise Set
Actual Time
Civil Twilight
Nautical Twilight
Astronomical Twilight
Moon
Length of Visible Light
Length of Day
Tomorrow will be .
, % of the Moon is Illuminated

Today's Extremes

State Highs State Lows

Community

WunderPhotos

Upload Photos

1,935,795 photos uploaded!

WunderBlog® & News

Nearby

Air Quality

  Air Quality AQ Index Pollutant
Not available.

Snow Depth

Station Depth Elevation

Earthquake Activity

City Distance Mag. Time & Date
Minimum magnitude displayed is 2.5.

Coastal Water Temperatures

Place Temperature

Stations

Nearby Weather Stations

Station Location Temp. Windchill Dew Point Humidity Wind Precip. Elev Updated Type
                   

Watches & Warnings

There are currently no watches in effect.